Weather History for Miami, FL

Change the Weather History Date:

Wednesday, July 17, 2013

  Actual Average Record
Temperature  
Mean Temperature 75 °F 84 °F  
Max Temperature 78 °F 91 °F 97 °F (2011)
Min Temperature 72 °F 77 °F 70 °F (1947)
Degree Days  
Heating Degree Days 0 0  
Month to date heating degree days 0 0  
Since 1 June heating degree days 0 0  
Since 1 July heating degree days 0 0  
Cooling Degree Days 10 19  
Month to date cooling degree days 284 322  
Year to date cooling degree days 2277 2210  
Since 1 June cooling degree days 832 854  
Growing Degree Days 24 (Base 50)    
Moisture  
Dew Point 72 °F    
Average Humidity 84    
Maximum Humidity 94    
Minimum Humidity 74    
Precipitation  
Precipitation 3.20 in 0.18 in 3.20 in (2013)
Month to date precipitation 9.78 3.81  
Year to date precipitation 35.33 28.83  
Snow  
Snow 0.00 in - - ()
Month to date snowfall 0.0  
Since 1 June snowfall 0.0  
Since 1 July snowfall 0.0  
Snow Depth 0.00 in    
Sea Level Pressure  
Sea Level Pressure 30.10 in    
Wind  
Wind Speed 5 mph (East)    
Max Wind Speed 20 mph    
Max Gust Speed 26 mph    
Visibility 6 miles    
Events Fog , Rain , Thunderstorm    
T = Trace of Precipitation, MM = Missing Value Source: NWS Daily Summary

Daily Weather History Graph

Daily Weather History Graph

Search for Another Location

Airport:

Trip Planner

Search our weather history database for the weather conditions in past years. The results will help you decide how hot, cold, wet, or windy it might be!

Date:

Astronomy

Jul. 17, 2013 Rise Set
Actual Time 6:40 AM EDT 8:14 PM EDT
Civil Twilight 6:14 AM EDT 8:39 PM EDT
Nautical Twilight 5:44 AM EDT 9:10 PM EDT
Astronomical Twilight 5:12 AM EDT 9:41 PM EDT
Moon 3:09 PM EDT (7/17) 1:35 AM EDT (7/17)
Length of Visible Light 14h 24m
Length of Day
13h 33m
Waxing Gibbous, 67% of the Moon is Illuminated
Jul 17
Waxing Gibbous
Jul 22
Full
Jul 29
Last Quarter
Aug 6
New
Aug 14
First Quarter

Hourly Weather History & Observations

Time (EDT) Temp. Dew Point Humidity Pressure Visibility Wind Dir Wind Speed Gust Speed Precip Events Conditions
12:12 AM 78.8 °F 71.6 °F 78% 30.10 in 7.0 mi East 6.9 mph 18.4 mph 0.05 in Rain Light Rain
12:53 AM 77.0 °F 72.0 °F 84% 30.10 in 0.5 mi ENE 12.7 mph 19.6 mph 0.08 in Rain Heavy Rain
12:56 AM 75.2 °F 71.6 °F 89% 30.10 in 9.0 mi East 5.8 mph 19.6 mph 0.00 in Rain Light Rain
1:53 AM 75.9 °F 71.1 °F 85% 30.09 in 9.0 mi East 4.6 mph - 0.17 in Rain Light Rain
2:22 AM 78.8 °F 73.4 °F 83% 30.08 in 10.0 mi ENE 5.8 mph - 0.00 in   Mostly Cloudy
2:53 AM 78.1 °F 73.0 °F 84% 30.07 in 10.0 mi ENE 5.8 mph - 0.00 in   Mostly Cloudy
3:36 AM 75.2 °F 73.4 °F 94% 30.07 in 7.0 mi Calm Calm - 0.03 in Rain Light Rain
3:53 AM 75.9 °F 73.0 °F 91% 30.07 in 10.0 mi Calm Calm - 0.04 in Rain Light Rain
4:13 AM 75.2 °F 73.4 °F 94% 30.06 in 10.0 mi West 3.5 mph - 0.00 in Rain Light Rain
4:43 AM 75.2 °F 71.6 °F 89% 30.07 in 4.0 mi Variable 5.8 mph - 0.00 in Rain Light Rain
4:48 AM 73.4 °F 71.6 °F 94% 30.08 in 1.0 mi SSW 13.8 mph - 0.01 in Rain , Thunderstorm Heavy Thunderstorms and Rain
4:53 AM 73.9 °F 72.0 °F 93% 30.08 in 1.0 mi WSW 12.7 mph - 0.20 in Rain , Thunderstorm Heavy Thunderstorms and Rain
4:58 AM 73.4 °F 71.6 °F 94% 30.08 in 0.5 mi West 9.2 mph - 0.28 in Fog , Rain , Thunderstorm Heavy Thunderstorms and Rain
5:27 AM 73.4 °F 71.6 °F 94% 30.09 in 2.5 mi WNW 4.6 mph - 0.81 in Rain Heavy Rain
5:44 AM 73.4 °F 71.6 °F 94% 30.10 in 1.0 mi NNE 6.9 mph - 0.81 in Rain , Thunderstorm Heavy Thunderstorms and Rain
5:53 AM 72.0 °F 71.1 °F 97% 30.11 in 1.0 mi NE 11.5 mph 18.4 mph 0.81 in Rain , Thunderstorm Heavy Thunderstorms and Rain
6:11 AM 71.6 °F 71.6 °F 100% 30.11 in 4.0 mi NNE 8.1 mph - 0.01 in Rain Light Rain
6:29 AM 71.6 °F 71.6 °F 100% 30.12 in 5.0 mi NE 9.2 mph - 0.02 in Rain Heavy Rain
6:53 AM 72.0 °F 71.1 °F 97% 30.11 in 5.0 mi NNE 6.9 mph - 0.03 in Rain Rain
7:31 AM 73.4 °F 71.6 °F 94% 30.12 in 1.0 mi East 10.4 mph 16.1 mph 0.00 in Rain Rain
7:39 AM 71.6 °F 69.8 °F 94% 30.13 in 0.8 mi East 17.3 mph 26.5 mph 0.00 in Rain Heavy Rain
7:50 AM 71.6 °F 69.8 °F 94% 30.12 in 1.0 mi ENE 6.9 mph - 0.01 in Rain Heavy Rain
7:53 AM 72.0 °F 70.0 °F 93% 30.12 in 1.0 mi East 6.9 mph - 0.01 in Rain Heavy Rain
8:04 AM 71.6 °F 71.6 °F 100% 30.12 in 1.5 mi East 8.1 mph - 0.00 in Rain Rain
8:32 AM 73.4 °F 71.6 °F 94% 30.14 in 2.0 mi East 8.1 mph - 0.00 in Rain Light Rain
8:53 AM 73.0 °F 72.0 °F 96% 30.14 in 2.0 mi East 8.1 mph - 0.00 in Rain Light Rain
9:13 AM 73.4 °F 71.6 °F 94% 30.14 in 5.0 mi SE 4.6 mph - N/A Rain Rain
9:53 AM 73.9 °F 72.0 °F 93% 30.13 in 10.0 mi Calm Calm - N/A Rain Light Rain
10:53 AM 73.9 °F 72.0 °F 93% 30.15 in 10.0 mi NE 5.8 mph - 0.01 in Rain Light Rain
11:53 AM 75.9 °F 72.0 °F 87% 30.14 in 10.0 mi ENE 9.2 mph - 0.01 in Rain Light Rain
12:53 PM 75.9 °F 73.0 °F 91% 30.15 in 10.0 mi ENE 4.6 mph - 0.00 in Rain Light Rain
1:53 PM 75.0 °F 73.0 °F 94% 30.13 in 10.0 mi Calm Calm - 0.00 in Rain Light Rain
2:53 PM 77.0 °F 73.9 °F 90% 30.12 in 10.0 mi East 6.9 mph - 0.01 in Rain Light Rain
3:53 PM 75.0 °F 72.0 °F 90% 30.10 in 7.0 mi SSE 10.4 mph 17.3 mph 0.00 in Rain Light Rain
4:53 PM 73.9 °F 72.0 °F 93% 30.08 in 10.0 mi ESE 5.8 mph - 0.00 in Rain Light Rain
5:11 PM 75.2 °F 73.4 °F 94% 30.06 in 10.0 mi ESE 6.9 mph - N/A Rain Light Rain
5:53 PM 75.9 °F 72.0 °F 87% 30.06 in 10.0 mi East 3.5 mph - 0.00 in   Mostly Cloudy
6:53 PM 78.1 °F 70.0 °F 76% 30.08 in 10.0 mi ESE 5.8 mph - 0.02 in   Mostly Cloudy
7:53 PM 77.0 °F 70.0 °F 79% 30.09 in 10.0 mi East 3.5 mph - N/A   Mostly Cloudy
8:53 PM 77.0 °F 71.1 °F 82% 30.09 in 10.0 mi East 3.5 mph - N/A   Mostly Cloudy
9:53 PM 77.0 °F 72.0 °F 84% 30.10 in 10.0 mi Calm Calm - N/A   Overcast
10:53 PM 75.9 °F 72.0 °F 87% 30.11 in 10.0 mi Calm Calm - N/A   Mostly Cloudy
11:53 PM 77.0 °F 72.0 °F 84% 30.11 in 10.0 mi Variable 4.6 mph - N/A   Mostly Cloudy